Preview of NWS' New Version of Forecast
This preview is not operational and should not be used for support decisions.

Regional Weather Roundup (RWR)

Issued by National Weather Service (NWS)

                            
000
ASUS43 KTOP 190008
RWRKS 

WEATHER ROUNDUP FOR KANSAS
NATIONAL WEATHER SERVICE GOODLAND KS
700 PM CDT TUE JUN 18 2019

NOTE:  "FAIR" INDICATES FEW OR NO CLOUDS BELOW 12,000 FEET WITH NO
SIGNIFICANT WEATHER AND/OR OBSTRUCTIONS TO VISIBILITY.

KSZ001>006-013>018-027>032-041>047-190100-
NORTHWEST KANSAS
  
CITY           SKY/WX    TMP DP  RH WIND       PRES   REMARKS
GOODLAND       PTSUNNY   67  60  78 E5        29.94F                  
6HR MIN TEMP:  64; 6HR MAX TEMP:  72; 6HR PCP:  0.01;                

HAYS           SUNNY     70  62  76 N13       29.86F                  
HILL CITY      MOSUNNY   70  61  73 N15       29.90F                  
6HR MIN TEMP:  63; 6HR MAX TEMP:  71; 6HR PCP:  0.41;                

RUSSELL        MOSUNNY   70  61  73 NE7       29.85S                  
6HR MIN TEMP:  66; 6HR MAX TEMP:  72; 6HR PCP: TRACE;                

$$

KSZ061>065-074>080-084>089-190100-
SOUTHWEST KANSAS
  
CITY           SKY/WX    TMP DP  RH WIND       PRES   REMARKS
DODGE CITY     SUNNY     74  64  71 NE12      29.86F                  
6HR MIN TEMP:  72; 6HR MAX TEMP:  80;                                

ELKHART        PTSUNNY   80  64  57 E7        29.90S                  
GARDEN CITY    PTSUNNY   75  64  68 NE13      29.89R                  
6HR MIN TEMP:  73; 6HR MAX TEMP:  79;                                

GREAT BEND     SUNNY     70  66  87 N7        29.86F                  
LIBERAL        SUNNY     81  59  47 CALM      29.87S                  
PRATT          SUNNY     77  68  72 N10       29.84S                  
6HR MIN TEMP:  75; 6HR MAX TEMP:  83;                                

$$

KSZ066>073-081>083-090>101-190100-
SOUTHEAST KANSAS
  
CITY           SKY/WX    TMP DP  RH WIND       PRES   REMARKS
CHANUTE        SUNNY     81  67  62 S5        29.84R                  
6HR MIN TEMP:  81; 6HR MAX TEMP:  86;                                

COFFEYVILLE    SUNNY     80  66  62 S6        29.81R                  
6HR MIN TEMP:  80; 6HR MAX TEMP:  86;                                

HUTCHINSON     PTSUNNY   75  65  70 NE10      29.82F                  
6HR MIN TEMP:  72; 6HR MAX TEMP:  79;                                

MEDICINE LODGE   N/A     81  66  60 N14G24    29.79R                  
NEWTON         SUNNY     66  64  93 NE6       29.85F                  
PARSONS        SUNNY     81  69  67 CALM      29.83S                  
6HR MIN TEMP:  81; 6HR MAX TEMP:  85;                                

WICHITA INTL   PTSUNNY   69  65  86 NE9       29.84S                  
6HR MIN TEMP:  68; 6HR MAX TEMP:  83; 6HR PCP:  0.81;                

WICHITA JABRA  MOSUNNY   66  65  96 E6        29.86R                  
6HR MIN TEMP:  65; 6HR MAX TEMP:  83; 6HR PCP:  2.14;                

WICHITA MCCONL PTSUNNY   66  65  97 N10       29.84R                  
WINFIELD       CLOUDY    66  63  90 NE13      29.84R THUNDER          
6HR MIN TEMP:  67; 6HR MAX TEMP:  85; 6HR PCP: TRACE;                

$$

KSZ007>012-019>026-033>040-048>060-102>105-190100-
NORTHEAST KANSAS
  
CITY           SKY/WX    TMP DP  RH WIND       PRES   REMARKS
CONCORDIA      CLOUDY    68  64  87 MISG      29.87S                  
6HR MIN TEMP:  67; 6HR MAX TEMP:  71; 6HR PCP:  0.12;                

EMPORIA        TSTM      66  66 100 E5        29.85F                  
6HR MIN TEMP:  65; 6HR MAX TEMP:  83; 6HR PCP:  2.20;                

LAWRENCE       LGT RAIN  68  66  93 NW5       29.86S FOG              
6HR MIN TEMP:  68; 6HR MAX TEMP:  82; 6HR PCP:  0.11;                

MANHATTAN      CLOUDY    68  65  90 E6        29.84S                  
6HR MIN TEMP:  65; 6HR MAX TEMP:  85;                                

MARYSVILLE     CLOUDY    64  64 100 NE8       29.86F                  
OLATHE IND     LGT RAIN  75  63  66 CALM      29.87R                  
6HR MIN TEMP:  75; 6HR MAX TEMP:  82; 6HR PCP:  0.01;                

OLATHE EXE     MOSUNNY   75  64  68 SE5       29.86S                  
6HR MIN TEMP:  75; 6HR MAX TEMP:  80;                                

SALINA         PTSUNNY   73  65  75 N7        29.85S                  
6HR MIN TEMP:  66; 6HR MAX TEMP:  74; 6HR PCP:  0.63;                

TOPEKA BILLARD LGT RAIN  68  65  90 SE6       29.83F                  
6HR MIN TEMP:  67; 6HR MAX TEMP:  81; 6HR PCP:  0.13;                

TOPEKA FORBES  LGT RAIN  67  64  90 SE7       29.83F                  
6HR MIN TEMP:  66; 6HR MAX TEMP:  82; 6HR PCP:  0.82;                

$$